Weather History for Fairbanks Eiels, AK

Change the Weather History Date:

Tuesday, April 9, 2013

  Actual Average Record
Temperature  
Mean Temperature 8 °F -  
Max Temperature 10 °F 35 °F 55 °F (1997)
Min Temperature 6 °F 13 °F -14 °F (1972)
Degree Days  
Heating Degree Days 57    
Moisture  
Dew Point 4 °F    
Average Humidity 80    
Maximum Humidity 85    
Minimum Humidity 66    
Precipitation  
Precipitation 0.08 in - - ()
Snow  
Snow 0.00 in - - ()
Snow Depth 16.00 in    
Sea Level Pressure  
Sea Level Pressure 29.30 in    
Wind  
Wind Speed 5 mph (SW)    
Max Wind Speed 15 mph    
Max Gust Speed 20 mph    
Visibility 3 miles    
Events Snow    
Averages and records for this station are not official NWS values.
T = Trace of Precipitation, MM = Missing Value Source: NWS Daily Summary

Daily Weather History Graph

Daily Weather History Graph

Search for Another Location

Airport:

Trip Planner

Search our weather history database for the weather conditions in past years. The results will help you decide how hot, cold, wet, or windy it might be!

Date:

Astronomy

Apr. 09, 2013 Rise Set
Actual Time 6:34 AM AKDT 9:07 PM AKDT
Civil Twilight 5:40 AM AKDT 10:01 PM AKDT
Nautical Twilight 4:25 AM AKDT 11:18 PM AKDT
Astronomical Twilight 2:22 AM AKDT 1:17 AM AKDT
Moon 6:10 AM AKDT (4/9) 8:58 PM AKDT (4/9)
Length of Visible Light 16h 21m
Length of Day
14h 32m
Waning Crescent, 0% of the Moon is Illuminated
Apr 9
Waning Crescent
Apr 10
New
Apr 18
First Quarter
Apr 25
Full
May 2
Last Quarter

Hourly Weather History & Observations

Time (AKDT) Temp. Windchill Dew Point Humidity Pressure Visibility Wind Dir Wind Speed Gust Speed Precip Events Conditions
12:29 AM 6.8 °F -0.1 °F 3.2 °F 85% 29.48 in 4.0 mi Variable 3.5 mph - N/A Snow Light Snow
12:55 AM 7.5 °F -1.1 °F 3.4 °F 83% 29.47 in 4.0 mi Variable 4.6 mph - 0.00 in Snow Light Snow
1:55 AM 7.2 °F -1.5 °F 3.4 °F 85% 29.44 in 4.0 mi SSE 4.6 mph - 0.00 in Snow Light Snow
2:36 AM 6.8 °F -2.0 °F 3.2 °F 85% 29.42 in 4.0 mi SSE 4.6 mph - N/A Snow Light Snow
2:55 AM 7.2 °F -1.5 °F 3.4 °F 85% 29.41 in 4.0 mi SE 4.6 mph - 0.00 in Snow Light Snow
3:15 AM 6.8 °F -0.1 °F 3.2 °F 85% 29.39 in 5.0 mi Variable 3.5 mph - N/A Snow Light Snow
3:16 AM 6.8 °F -0.1 °F 3.2 °F 85% 29.39 in 5.0 mi South 3.5 mph - N/A Snow Light Snow
3:30 AM 6.8 °F -2.0 °F 3.2 °F 85% 29.39 in 4.0 mi SSE 4.6 mph - N/A   Overcast
3:55 AM 7.0 °F -1.7 °F 3.2 °F 84% 29.37 in 4.0 mi Variable 4.6 mph - 0.00 in Snow Light Snow
4:09 AM 6.8 °F -2.0 °F 3.2 °F 85% 29.36 in 4.0 mi South 4.6 mph - N/A Snow Light Snow
4:38 AM 6.8 °F -0.1 °F 3.2 °F 85% 29.35 in 5.0 mi Variable 3.5 mph - N/A   Overcast
4:55 AM 6.8 °F - 2.8 °F 84% 29.34 in 5.0 mi Calm Calm - 0.00 in Snow Light Snow
5:02 AM 6.8 °F - 3.2 °F 85% 29.33 in 6.0 mi Calm Calm - N/A   Overcast
5:55 AM 6.6 °F - 2.5 °F 83% 29.31 in 6.0 mi Calm Calm - 0.00 in Snow Light Snow
5:58 AM 6.8 °F -0.1 °F 3.2 °F 85% 29.31 in 6.0 mi Variable 3.5 mph - N/A Snow Light Snow
7:27 AM 6.8 °F - 1.4 °F 79% 29.24 in 4.0 mi Variable 2.3 mph - N/A Snow Light Snow
7:55 AM 6.4 °F - 1.8 °F 81% 29.27 in 2.5 mi Calm Calm - 0.00 in Snow Light Snow
8:55 AM 6.8 °F -0.1 °F 1.4 °F 79% 29.25 in 3.0 mi Variable 3.5 mph - 0.00 in Snow Light Snow
9:55 AM 7.9 °F -0.7 °F 1.8 °F 76% 29.23 in 5.0 mi Variable 4.6 mph - 0.00 in   Haze
10:55 AM 8.4 °F -1.6 °F 1.9 °F 75% 29.22 in 5.0 mi Variable 5.8 mph - 0.00 in Snow Light Snow
11:55 AM 9.9 °F -1.1 °F 2.7 °F 73% 29.20 in 4.0 mi Variable 6.9 mph - 0.00 in Snow Light Snow
1:17 PM 10.4 °F -2.4 °F 3.2 °F 73% 29.18 in 0.8 mi West 9.2 mph - N/A Snow Light Snow
1:55 PM 10.8 °F 0.0 °F 4.6 °F 76% 29.18 in 0.8 mi Variable 6.9 mph - 0.00 in Snow Light Snow
2:43 PM 10.4 °F -2.4 °F 5.0 °F 79% 29.18 in 0.6 mi WSW 9.2 mph - N/A Snow Light Snow
2:55 PM 10.6 °F -3.1 °F 5.4 °F 79% 29.18 in 0.5 mi West 10.4 mph - 0.00 in Snow Snow
3:01 PM 10.4 °F -2.4 °F 5.0 °F 79% 29.18 in 0.6 mi WSW 9.2 mph - N/A Snow Light Snow
3:27 PM 10.4 °F -2.4 °F 5.0 °F 79% 29.19 in 0.5 mi WSW 9.2 mph - N/A Snow Snow
3:55 PM 10.4 °F -2.4 °F 5.5 °F 81% 29.24 in 0.5 mi WSW 9.2 mph - 0.00 in Snow Snow
4:06 PM 10.4 °F -6.0 °F 5.0 °F 79% 29.21 in 0.8 mi WSW 15.0 mph 19.6 mph N/A Snow Light Snow
4:15 PM 10.4 °F -4.1 °F 5.0 °F 79% 29.21 in 0.6 mi WSW 11.5 mph - N/A Snow Light Snow
4:18 PM 10.4 °F -3.3 °F 5.0 °F 79% 29.21 in 0.8 mi West 10.4 mph - N/A Snow Light Snow
4:23 PM 10.4 °F -4.1 °F 5.0 °F 79% 29.21 in 0.6 mi West 11.5 mph - N/A Snow Light Snow
4:55 PM 9.7 °F -2.4 °F 4.8 °F 81% 29.22 in 0.6 mi West 8.1 mph - 0.00 in Snow Light Snow
5:55 PM 9.5 °F -5.2 °F 4.6 °F 81% 29.25 in 0.5 mi West 11.5 mph - 0.00 in Snow Snow
6:55 PM 9.7 °F -5.0 °F 4.8 °F 81% 29.28 in 0.8 mi WSW 11.5 mph - 0.00 in Snow Light Snow
7:26 PM 10.4 °F 0.8 °F 5.0 °F 79% 29.30 in 1.0 mi Variable 5.8 mph - N/A Snow Light Snow
7:55 PM 10.2 °F -1.7 °F 5.5 °F 81% 29.32 in 1.0 mi WSW 8.1 mph - 0.00 in Snow Light Snow
8:16 PM 10.4 °F -0.4 °F 5.0 °F 79% 29.33 in 2.0 mi WSW 6.9 mph - N/A Snow Light Snow
8:47 PM 10.4 °F 0.8 °F 5.0 °F 79% 29.31 in 3.0 mi Variable 5.8 mph - N/A Snow Light Snow
8:55 PM 9.9 °F 1.6 °F 4.6 °F 79% 29.37 in 6.0 mi Variable 4.6 mph - 0.00 in Snow Light Snow
9:55 PM 9.9 °F -1.1 °F 0.9 °F 67% 29.45 in 10.0 mi Variable 6.9 mph - N/A   Overcast
10:55 PM 9.3 °F -0.5 °F 0.1 °F 66% 29.45 in 10.0 mi WSW 5.8 mph - N/A   Mostly Cloudy
11:55 PM 8.6 °F -2.6 °F 0.1 °F 68% 29.49 in 10.0 mi Variable 6.9 mph - N/A   Clear